Stuart Powell Field (DVK)

 

Airport Diagram
No Airport Diagram Available
Current Weather/Forecast (VFR Conditions)
METAR KDVK 071255Z AUTO 32006KT 10SM SCT011 08/05 A3010 RMK AO2
TAF

Airport Information

All Charts
General
Chart Name View
TAKEOFF MINIMUMS

Approaches
Chart Name Download
RNAV (GPS) RWY 12
RNAV (GPS) RWY 30
LOC RWY 30
NDB-A


Airport Statistics
Departures Arrivals Local
All Collected Stats since June 2016: 7 5 0
2021 Stats: 0 1 0
May Stats: 0 1 0

Inbound Traffic (Arrivals) - 0

No inbound traffic.


Outbound Traffic (Departures) - 0

No outbound traffic.


Local Traffic (Pattern) - 0

No local traffic.